San Lorenzo, CA

4:47 AM PDT on August 27, 2016 (GMT -0700)
Hayward Executive

Weather History for KHWD - June, 2013

Change the Weather History Date:

Thursday, June 20, 2013

  Actual Average Record
Temperature  
Mean Temperature 61 °F 64 °F  
Max Temperature 70 °F 73 °F 100 °F (2008)
Min Temperature 52 °F 56 °F 47 °F (2014)
Degree Days  
Heating Degree Days 4    
Month to date heating degree days 41  
Since 1 June heating degree days 41  
Since 1 July heating degree days 2321  
Cooling Degree Days 0    
Month to date cooling degree days 7  
Year to date cooling degree days 54  
Since 1 June cooling degree days 7  
Growing Degree Days 11 (Base 50)    
Moisture  
Dew Point 50 °F    
Average Humidity 68    
Maximum Humidity 83    
Minimum Humidity 52    
Precipitation  
Precipitation 0.00 in - 0.00 in (2016)
Month to date precipitation T  
Year to date precipitation 1.48  
Since 1 July precipitation 7.46  
Sea Level Pressure  
Sea Level Pressure 30.02 in    
Wind  
Wind Speed 8 mph (West)    
Max Wind Speed 20 mph    
Max Gust Speed 25 mph    
Visibility 10 miles    
Events      
T = Trace of Precipitation, MM = Missing Value Source: NWS Daily Summary

Daily Weather History Graph

Daily Weather History Graph

Search for Another Location

Airport or City:

Trip Planner

Search our weather history database for the weather conditions in past years. The results will help you decide how hot, cold, wet, or windy it might be!

Date:

Astronomy

Jun. 20, 2013 Rise Set
Actual Time 5:47 AM PDT 8:33 PM PDT
Civil Twilight 5:15 AM PDT 9:04 PM PDT
Nautical Twilight 4:36 AM PDT 9:43 PM PDT
Astronomical Twilight 3:52 AM PDT 10:28 PM PDT
Moon 5:43 PM PDT (6/20) 3:15 AM PDT (6/20)
Length of Visible Light 15h 48m
Length of Day
14h 46m
Waxing Gibbous, 89% of the Moon is Illuminated
Jun 20
Waxing Gibbous
Jun 23
Full
Jun 29
Last Quarter
Jul 8
New
Jul 15
First Quarter

Hourly Weather History & Observations

Time (PDT) Temp. Dew Point Humidity Pressure Visibility Wind Dir Wind Speed Gust Speed Precip Events Conditions
12:54 AM 57.9 °F 50.0 °F 75% 30.04 in 10.0 mi Calm Calm - N/A   Clear
1:54 AM 54.0 °F 48.9 °F 83% 30.04 in 10.0 mi SE 4.6 mph - N/A   Clear
2:54 AM 57.0 °F 51.1 °F 81% 30.03 in 10.0 mi Calm Calm - N/A   Clear
3:54 AM 55.0 °F 48.9 °F 80% 30.01 in 10.0 mi Calm Calm - N/A   Clear
4:54 AM 55.0 °F 50.0 °F 83% 30.01 in 10.0 mi South 3.5 mph - N/A   Clear
5:54 AM 53.1 °F 48.9 °F 86% 30.02 in 10.0 mi ESE 5.8 mph - N/A   Clear
6:54 AM 55.9 °F 50.0 °F 80% 30.03 in 10.0 mi WSW 6.9 mph - N/A   Clear
7:54 AM 57.9 °F 50.0 °F 75% 30.04 in 10.0 mi Calm Calm - N/A   Clear
8:54 AM 60.1 °F 48.0 °F 64% 30.04 in 10.0 mi West 3.5 mph - N/A   Clear
9:54 AM 63.0 °F 48.0 °F 58% 30.03 in 10.0 mi Variable 3.5 mph - N/A   Clear
10:54 AM 64.9 °F 48.0 °F 54% 30.02 in 10.0 mi Variable 5.8 mph - N/A   Clear
11:54 AM 68.0 °F 50.0 °F 52% 30.01 in 10.0 mi West 9.2 mph - N/A   Clear
12:54 PM 69.1 °F 52.0 °F 54% 30.01 in 10.0 mi WNW 12.7 mph - N/A   Clear
1:54 PM 68.0 °F 51.1 °F 55% 30.01 in 10.0 mi West 16.1 mph - N/A   Clear
2:54 PM 68.0 °F 51.1 °F 55% 30.01 in 10.0 mi West 15.0 mph 21.9 mph N/A   Clear
3:54 PM 66.9 °F 51.1 °F 57% 30.01 in 10.0 mi West 15.0 mph 18.4 mph N/A   Clear
4:54 PM 66.9 °F 51.1 °F 57% 30.01 in 10.0 mi WSW 15.0 mph - N/A   Clear
5:54 PM 66.0 °F 48.9 °F 54% 30.00 in 10.0 mi West 19.6 mph - N/A   Clear
6:54 PM 63.0 °F 48.9 °F 60% 30.01 in 10.0 mi WNW 16.1 mph 23.0 mph N/A   Clear
7:54 PM 61.0 °F 48.9 °F 64% 30.02 in 10.0 mi WNW 15.0 mph - N/A   Clear
8:54 PM 59.0 °F 50.0 °F 72% 30.01 in 10.0 mi West 10.4 mph - N/A   Clear
9:54 PM 59.0 °F 51.1 °F 75% 30.02 in 10.0 mi West 6.9 mph - N/A   Clear
10:54 PM 57.9 °F 50.0 °F 75% 30.03 in 10.0 mi West 6.9 mph - N/A   Clear
11:54 PM 57.9 °F 50.0 °F 75% 30.02 in 10.0 mi Calm Calm - N/A   Clear